STARLINK-1049 (44754 NORAD) Tracking and Keplerian Element Data

This shows tracking and keplerian element data for the satellite.

Feedback or suggestion? Click here.




ElementValue
Catalog44754
NameSTARLINK-1049
Epoch Orbit1145
Epoch Day23.25001157
Epoch Year2020
RAAN169.3535
Inclination53.0058
Eccentricity0.0002678
Argument of Perigee15.6896
Mean Anonmoly262.1303
Mean Motion15.73036377
Decay Rate0.0101697
L11 44754U 19074AT 20023.25001157 .01016970 00000-0 65785-2 0 9990
L22 44754 53.0058 169.3535 0002678 15.6896 262.1303 15.73036377 11457

Live tracking and technical data element details for STARLINK-1049 (NORAD 44754). STARLINK-1049 can be tracked NOW for your location showing map with azimuth and elevation plus other details from your city location.

Track the satellite on the map from your city or location and see movement details for azimuth, elevation, latitude, longitude, range, height, and movement on the map or in text.







IsCatalogInMostPopularTable: catalog: 44754, numindb: 16
Update: records affected: 1



GetName: 44754 STARLINK-1049

Hit Count: updated at: Fri, 24 Jan 2020 10:26:04 GMT